RYR238 LIRF-LIME

Flight info

Callsign RYR238
Flight time N/A
Altitude 3400
Route LIRF/16L N0462F340 NEM7A NEMBO DCT BETEN DCT SPEZI DCT LUKIM DCT GEN/N0390F180 Q713 AMOXI T836 DIXER DIXE4E LIME/10
Aircraft B738/M-V/N

Departure

Time 2026-05-05 15:04
Airport Rome–Fiumicino Leonardo da Vinci International Airport (LIRF)

Arrival

Time N/A
Airport Il Caravaggio International Airport (LIME)
Time Latitude Longitude Altitude Speed Heading
2026-05-05 14:22 41.79469 12.24126 16 ft 0 kts 25°
2026-05-05 14:41 41.79472 12.24127 44 ft 1 kts 25°
2026-05-05 14:41 41.79478 12.24119 16 ft 2 kts 303°
2026-05-05 14:42 41.79492 12.24089 17 ft 6 kts 301°
2026-05-05 14:42 41.79520 12.24021 16 ft 10 kts 297°
2026-05-05 14:42 41.79552 12.23937 14 ft 8 kts 301°
2026-05-05 14:42 41.79611 12.23905 14 ft 11 kts 341°
2026-05-05 14:43 41.79628 12.23897 14 ft 12 kts 340°
2026-05-05 14:43 41.79653 12.23885 14 ft 13 kts 345°
2026-05-05 14:43 41.79724 12.23963 14 ft 16 kts 70°
2026-05-05 14:43 41.79768 12.24124 13 ft 20 kts 70°
2026-05-05 14:44 41.79803 12.24249 14 ft 22 kts 69°
2026-05-05 14:44 41.79849 12.24390 15 ft 10 kts 39°
2026-05-05 14:44 41.79913 12.24392 15 ft 10 kts 336°
2026-05-05 14:44 41.79984 12.24427 10 ft 10 kts 67°
2026-05-05 14:45 41.80010 12.24509 11 ft 9 kts 67°
2026-05-05 14:45 41.80024 12.24565 12 ft 9 kts 72°
2026-05-05 14:45 41.80047 12.24655 15 ft 12 kts 69°
2026-05-05 14:45 41.80084 12.24787 15 ft 18 kts 69°
2026-05-05 14:46 41.80110 12.24963 18 ft 20 kts 91°
2026-05-05 14:46 41.80097 12.25113 18 ft 13 kts 95°
2026-05-05 14:46 41.80116 12.25211 18 ft 6 kts 31°
2026-05-05 14:46 41.80140 12.25199 18 ft 4 kts 314°
2026-05-05 14:47 41.80154 12.25167 18 ft 4 kts 298°
2026-05-05 14:47 41.80167 12.25135 18 ft 4 kts 297°
2026-05-05 14:47 41.80184 12.25090 18 ft 7 kts 311°
2026-05-05 14:47 41.80213 12.25093 18 ft 4 kts 40°
2026-05-05 14:48 41.80222 12.25124 18 ft 4 kts 73°
2026-05-05 14:48 41.80230 12.25160 19 ft 5 kts 72°
2026-05-05 14:48 41.80233 12.25171 20 ft 0 kts 72°
2026-05-05 14:49 41.80234 12.25176 20 ft 2 kts 72°
2026-05-05 14:49 41.80250 12.25230 18 ft 11 kts 68°
2026-05-05 14:50 41.80287 12.25366 17 ft 20 kts 69°
2026-05-05 14:50 41.80346 12.25585 17 ft 29 kts 71°
2026-05-05 14:50 41.80425 12.25865 13 ft 36 kts 69°
2026-05-05 14:50 41.80516 12.26196 13 ft 38 kts 70°
2026-05-05 14:51 41.80601 12.26515 15 ft 35 kts 70°
2026-05-05 14:51 41.80683 12.26811 12 ft 33 kts 70°
2026-05-05 14:51 41.80737 12.27007 11 ft 21 kts 69°
2026-05-05 14:51 41.80788 12.27174 12 ft 19 kts 56°
2026-05-05 14:52 41.80906 12.27224 10 ft 18 kts 360°
2026-05-05 14:52 41.81025 12.27184 14 ft 17 kts 343°
2026-05-05 14:52 41.81137 12.27135 15 ft 17 kts 342°
2026-05-05 14:52 41.81246 12.27091 17 ft 16 kts 343°
2026-05-05 14:53 41.81349 12.27048 18 ft 15 kts 343°
2026-05-05 14:53 41.81450 12.27007 19 ft 15 kts 343°
2026-05-05 14:53 41.81546 12.26967 19 ft 14 kts 341°
2026-05-05 14:53 41.81637 12.26927 20 ft 14 kts 342°
2026-05-05 14:54 41.81726 12.26891 19 ft 13 kts 344°
2026-05-05 14:54 41.81814 12.26854 18 ft 13 kts 342°
2026-05-05 14:54 41.81899 12.26818 16 ft 13 kts 343°
2026-05-05 14:54 41.81983 12.26783 16 ft 12 kts 343°
2026-05-05 14:55 41.82064 12.26749 17 ft 12 kts 343°
2026-05-05 14:55 41.82144 12.26716 16 ft 12 kts 342°
2026-05-05 14:55 41.82221 12.26683 19 ft 11 kts 342°
2026-05-05 14:55 41.82305 12.26649 17 ft 14 kts 343°
2026-05-05 14:56 41.82412 12.26605 17 ft 18 kts 342°
2026-05-05 14:56 41.82535 12.26553 21 ft 20 kts 342°
2026-05-05 14:56 41.82677 12.26494 19 ft 19 kts 343°
2026-05-05 14:56 41.82804 12.26442 18 ft 19 kts 343°
2026-05-05 14:57 41.82925 12.26386 15 ft 18 kts 344°
2026-05-05 14:57 41.83045 12.26356 17 ft 14 kts 10°
2026-05-05 14:57 41.83133 12.26386 19 ft 13 kts 14°
2026-05-05 14:57 41.83219 12.26404 19 ft 13 kts 343°
2026-05-05 14:58 41.83301 12.26369 22 ft 12 kts 343°
2026-05-05 14:58 41.83381 12.26334 21 ft 12 kts 341°
2026-05-05 14:58 41.83464 12.26299 22 ft 14 kts 343°
2026-05-05 14:58 41.83578 12.26253 23 ft 20 kts 343°
2026-05-05 14:59 41.83727 12.26190 23 ft 25 kts 342°
2026-05-05 14:59 41.83917 12.26115 18 ft 32 kts 343°
2026-05-05 14:59 41.84140 12.26017 17 ft 35 kts 342°
2026-05-05 14:59 41.84367 12.25916 18 ft 29 kts 343°
2026-05-05 15:00 41.84505 12.25871 22 ft 19 kts 357°
2026-05-05 15:00 41.84582 12.25912 28 ft 16 kts 45°
2026-05-05 15:00 41.84588 12.25922 27 ft 0 kts 52°
2026-05-05 15:01 41.84591 12.25927 27 ft 2 kts 54°
2026-05-05 15:01 41.84603 12.25956 27 ft 5 kts 65°
2026-05-05 15:02 41.84608 12.26006 26 ft 7 kts 96°
2026-05-05 15:02 41.84601 12.26044 26 ft 2 kts 104°
2026-05-05 15:02 41.84585 12.26084 25 ft 9 kts 126°
2026-05-05 15:02 41.84538 12.26163 21 ft 13 kts 133°
2026-05-05 15:03 41.84478 12.26203 22 ft 0 kts 163°
2026-05-05 15:03 41.84461 12.26210 22 ft 16 kts 163°
2026-05-05 15:03 41.84084 12.26369 19 ft 95 kts 163°
2026-05-05 15:04 41.83237 12.26741 47 ft 156 kts 159°
2026-05-05 15:04 41.82101 12.27212 593 ft 181 kts 161°
2026-05-05 15:04 41.80849 12.27696 1343 ft 192 kts 165°
2026-05-05 15:04 41.79536 12.28179 1977 ft 204 kts 166°
2026-05-05 15:05 41.76905 12.26907 2889 ft 224 kts 221°
2026-05-05 15:05 41.75781 12.25440 3497 ft 226 kts 221°
2026-05-05 15:05 41.74638 12.23970 4073 ft 229 kts 223°
2026-05-05 15:06 41.73483 12.22494 4698 ft 230 kts 224°
2026-05-05 15:06 41.72326 12.21018 5355 ft 229 kts 224°
2026-05-05 15:06 41.71184 12.19566 5953 ft 229 kts 225°
2026-05-05 15:06 41.70094 12.18036 6565 ft 228 kts 238°
2026-05-05 15:07 41.69623 12.16034 7133 ft 228 kts 267°
2026-05-05 15:07 41.69943 12.13959 7671 ft 234 kts 294°
2026-05-05 15:07 41.71008 12.12261 8087 ft 249 kts 321°
2026-05-05 15:07 41.72653 12.11366 8475 ft 261 kts 337°
2026-05-05 15:08 41.74236 12.10199 8874 ft 263 kts 316°
2026-05-05 15:08 41.75411 12.08263 9153 ft 274 kts 296°
2026-05-05 15:08 41.76310 12.05989 9859 ft 277 kts 294°
2026-05-05 15:08 41.77221 12.03685 10448 ft 284 kts 295°
2026-05-05 15:09 41.78206 12.01263 10620 ft 307 kts 296°
2026-05-05 15:09 41.79287 11.98679 10794 ft 328 kts 297°
2026-05-05 15:09 41.80453 11.95938 10962 ft 348 kts 297°
2026-05-05 15:09 41.81678 11.93088 11116 ft 366 kts 298°
2026-05-05 15:10 41.82975 11.90084 11491 ft 377 kts 297°
2026-05-05 15:10 41.84292 11.87030 12081 ft 380 kts 297°
2026-05-05 15:10 41.85618 11.83959 12713 ft 382 kts 297°
2026-05-05 15:10 41.86849 11.80797 13225 ft 384 kts 288°
2026-05-05 15:11 41.87427 11.77300 13773 ft 385 kts 277°
2026-05-05 15:11 41.87876 11.73749 14291 ft 388 kts 278°
2026-05-05 15:11 41.88386 11.70189 14872 ft 390 kts 279°
2026-05-05 15:11 41.88920 11.66594 15450 ft 395 kts 280°
2026-05-05 15:12 41.89575 11.63003 15980 ft 400 kts 289°
2026-05-05 15:12 41.90997 11.59759 16481 ft 407 kts 307°
2026-05-05 15:12 41.93079 11.57141 16977 ft 415 kts 324°
2026-05-05 15:12 41.95627 11.55250 17471 ft 420 kts 330°
2026-05-05 15:13 41.98221 11.53509 17903 ft 424 kts 331°
2026-05-05 15:13 42.00884 11.51759 18336 ft 427 kts 331°
2026-05-05 15:13 42.03567 11.49996 18733 ft 430 kts 331°
2026-05-05 15:13 42.06263 11.48211 19175 ft 431 kts 330°
2026-05-05 15:14 42.08953 11.46414 19599 ft 434 kts 330°
2026-05-05 15:14 42.11669 11.44583 20011 ft 436 kts 330°
2026-05-05 15:14 42.14387 11.42741 20412 ft 438 kts 330°
2026-05-05 15:14 42.17084 11.40907 20807 ft 440 kts 330°
2026-05-05 15:15 42.19828 11.39036 21185 ft 442 kts 330°
2026-05-05 15:15 42.22580 11.37156 21554 ft 445 kts 330°
2026-05-05 15:15 42.25358 11.35258 21918 ft 447 kts 330°
2026-05-05 15:15 42.28137 11.33356 22274 ft 449 kts 330°
2026-05-05 15:16 42.30926 11.31446 22624 ft 451 kts 329°
2026-05-05 15:16 42.33695 11.29548 22952 ft 453 kts 329°
2026-05-05 15:16 42.36508 11.27619 23271 ft 455 kts 329°
2026-05-05 15:16 42.39340 11.25674 23614 ft 457 kts 329°
2026-05-05 15:17 42.42187 11.23717 23901 ft 458 kts 329°
2026-05-05 15:17 42.45038 11.21756 24189 ft 460 kts 329°
2026-05-05 15:17 42.47893 11.19790 24466 ft 461 kts 329°
2026-05-05 15:17 42.50752 11.17819 24752 ft 462 kts 329°
2026-05-05 15:18 42.53630 11.15832 25022 ft 463 kts 329°
2026-05-05 15:18 42.56506 11.13844 25279 ft 465 kts 328°
2026-05-05 15:18 42.59387 11.11847 25519 ft 466 kts 328°
2026-05-05 15:18 42.62277 11.09829 25777 ft 468 kts 328°
2026-05-05 15:19 42.65177 11.07809 26052 ft 469 kts 328°
2026-05-05 15:19 42.68083 11.05790 26307 ft 470 kts 328°
2026-05-05 15:19 42.70992 11.03771 26628 ft 469 kts 328°
2026-05-05 15:19 42.73898 11.01757 27039 ft 467 kts 328°
2026-05-05 15:20 42.76783 10.99755 27470 ft 464 kts 327°
2026-05-05 15:20 42.79620 10.97784 27836 ft 463 kts 327°
2026-05-05 15:20 42.82483 10.95789 28165 ft 462 kts 327°
2026-05-05 15:20 42.85344 10.93791 28491 ft 462 kts 327°
2026-05-05 15:21 42.88198 10.91796 28845 ft 460 kts 327°
2026-05-05 15:21 42.91043 10.89806 29233 ft 459 kts 326°
2026-05-05 15:21 42.93879 10.87821 29635 ft 457 kts 326°
2026-05-05 15:21 42.96703 10.85841 30012 ft 456 kts 326°
2026-05-05 15:22 42.99521 10.83863 30322 ft 455 kts 326°
2026-05-05 15:22 43.02335 10.81886 30628 ft 453 kts 326°
2026-05-05 15:22 43.05131 10.79920 30931 ft 452 kts 326°
2026-05-05 15:22 43.07932 10.77948 31214 ft 451 kts 325°
2026-05-05 15:23 43.10721 10.75982 31503 ft 450 kts 325°
2026-05-05 15:23 43.13500 10.74022 31779 ft 449 kts 325°
2026-05-05 15:23 43.16280 10.72059 32057 ft 448 kts 324°
2026-05-05 15:23 43.19047 10.70102 32337 ft 447 kts 324°
2026-05-05 15:24 43.21811 10.68147 32617 ft 446 kts 324°
2026-05-05 15:24 43.24568 10.66194 32880 ft 446 kts 324°
2026-05-05 15:24 43.27323 10.64241 33165 ft 445 kts 324°
2026-05-05 15:24 43.30065 10.62295 33443 ft 444 kts 324°
2026-05-05 15:25 43.32770 10.60373 33701 ft 443 kts 323°
2026-05-05 15:25 43.35503 10.58429 33947 ft 442 kts 323°
2026-05-05 15:25 43.38239 10.56479 33973 ft 444 kts 323°
2026-05-05 15:26 43.43728 10.52564 33988 ft 443 kts 323°
2026-05-05 15:26 43.49194 10.48660 33993 ft 442 kts 323°
2026-05-05 15:27 43.54644 10.44759 33992 ft 441 kts 323°
2026-05-05 15:27 43.60088 10.40852 34001 ft 440 kts 323°
2026-05-05 15:28 43.65496 10.36963 34000 ft 441 kts 323°
2026-05-05 15:28 43.70936 10.33043 34004 ft 441 kts 323°
2026-05-05 15:29 43.76383 10.29109 34003 ft 442 kts 323°
2026-05-05 15:29 43.81848 10.25155 34006 ft 443 kts 323°
2026-05-05 15:30 43.87331 10.21180 33993 ft 445 kts 323°
2026-05-05 15:30 43.92817 10.17195 33989 ft 446 kts 323°
2026-05-05 15:31 43.98314 10.13193 33982 ft 446 kts 323°
2026-05-05 15:31 44.03797 10.09201 33986 ft 447 kts 323°
2026-05-05 15:32 44.08378 10.05863 33977 ft 447 kts 323°
2026-05-05 15:32 44.13878 10.01837 33989 ft 446 kts 323°
2026-05-05 15:32 44.16592 9.99855 33962 ft 432 kts 322°
2026-05-05 15:33 44.19210 9.97948 33958 ft 418 kts 322°
2026-05-05 15:33 44.21748 9.96095 33944 ft 404 kts 322°
2026-05-05 15:33 44.24200 9.94298 33827 ft 394 kts 322°
2026-05-05 15:33 44.26606 9.92525 33510 ft 388 kts 322°
2026-05-05 15:34 44.28977 9.90769 33146 ft 384 kts 322°
2026-05-05 15:34 44.31330 9.89025 32765 ft 380 kts 322°
2026-05-05 15:34 44.33663 9.87294 32377 ft 378 kts 322°
2026-05-05 15:34 44.35985 9.85571 31859 ft 379 kts 322°
2026-05-05 15:35 44.38312 9.83841 31309 ft 377 kts 323°
2026-05-05 15:35 44.40600 9.82142 30759 ft 376 kts 323°
2026-05-05 15:35 44.42910 9.80430 30237 ft 375 kts 323°
2026-05-05 15:35 44.45215 9.78722 29611 ft 375 kts 324°
2026-05-05 15:36 44.47518 9.77011 28846 ft 375 kts 324°
2026-05-05 15:36 44.49821 9.75300 28137 ft 374 kts 324°
2026-05-05 15:36 44.52124 9.73587 27438 ft 374 kts 324°
2026-05-05 15:36 44.54420 9.71877 26750 ft 374 kts 324°
2026-05-05 15:37 44.56716 9.70166 26104 ft 373 kts 324°
2026-05-05 15:37 44.59009 9.68456 25447 ft 372 kts 324°
2026-05-05 15:37 44.61285 9.66759 24844 ft 370 kts 324°
2026-05-05 15:37 44.63558 9.65060 24222 ft 367 kts 324°
2026-05-05 15:38 44.65797 9.63381 23675 ft 363 kts 324°
2026-05-05 15:38 44.68024 9.61714 23003 ft 362 kts 324°
2026-05-05 15:38 44.70248 9.60049 22310 ft 361 kts 325°
2026-05-05 15:38 44.72465 9.58388 21648 ft 361 kts 325°
2026-05-05 15:39 44.74652 9.56747 20987 ft 360 kts 326°
2026-05-05 15:39 44.76857 9.55092 20332 ft 359 kts 325°
2026-05-05 15:39 44.79062 9.53433 19712 ft 360 kts 326°
2026-05-05 15:39 44.81298 9.51746 19105 ft 369 kts 326°
2026-05-05 15:40 44.83583 9.50021 18501 ft 376 kts 326°
2026-05-05 15:40 44.85897 9.48276 17842 ft 377 kts 326°
2026-05-05 15:40 44.88205 9.46539 17158 ft 375 kts 326°
2026-05-05 15:40 44.90497 9.44811 16486 ft 373 kts 327°
2026-05-05 15:41 44.92779 9.43088 15844 ft 371 kts 327°
2026-05-05 15:41 44.95050 9.41371 15199 ft 369 kts 327°
2026-05-05 15:41 44.97305 9.39663 14568 ft 367 kts 327°
2026-05-05 15:41 44.99558 9.37979 13946 ft 365 kts 331°
2026-05-05 15:42 45.02014 9.37048 13263 ft 370 kts 353°
2026-05-05 15:42 45.04564 9.37467 12592 ft 372 kts 16°
2026-05-05 15:42 45.06837 9.39162 11937 ft 370 kts 38°
2026-05-05 15:42 45.08517 9.41875 11295 ft 366 kts 60°
2026-05-05 15:43 45.09452 9.45178 10650 ft 359 kts 79°
2026-05-05 15:43 45.09875 9.48633 10044 ft 354 kts 83°
2026-05-05 15:43 45.10223 9.52055 9388 ft 350 kts 84°
2026-05-05 15:43 45.10560 9.55413 8718 ft 347 kts 83°
2026-05-05 15:44 45.10912 9.58768 8058 ft 343 kts 83°
2026-05-05 15:44 45.11276 9.62106 7429 ft 341 kts 83°
2026-05-05 15:44 45.11638 9.65366 7130 ft 329 kts 83°
2026-05-05 15:44 45.11987 9.68489 6986 ft 312 kts 83°
2026-05-05 15:45 45.12584 9.71339 6951 ft 295 kts 62°
2026-05-05 15:45 45.13875 9.73571 6971 ft 295 kts 40°
2026-05-05 15:45 45.15629 9.75045 6981 ft 293 kts 22°
2026-05-05 15:45 45.17516 9.76140 6967 ft 294 kts 21°
2026-05-05 15:46 45.19414 9.77217 6966 ft 293 kts 21°
2026-05-05 15:46 45.21306 9.78288 6966 ft 293 kts 20°
2026-05-05 15:46 45.23199 9.79361 6968 ft 293 kts 21°
2026-05-05 15:46 45.25092 9.80442 6967 ft 293 kts 21°
2026-05-05 15:47 45.26956 9.81511 6969 ft 292 kts 21°
2026-05-05 15:47 45.28227 9.82251 6969 ft 292 kts 24°
2026-05-05 15:47 45.30231 9.84708 6969 ft 290 kts 60°
2026-05-05 15:47 45.30863 9.87389 6980 ft 286 kts 87°
2026-05-05 15:48 45.30708 9.90171 6969 ft 281 kts 106°
2026-05-05 15:48 45.30206 9.92827 6708 ft 276 kts 108°
2026-05-05 15:48 45.29957 9.95497 6389 ft 273 kts 88°
2026-05-05 15:48 45.30157 9.98149 6102 ft 266 kts 85°
2026-05-05 15:49 45.30345 10.00742 5731 ft 261 kts 84°
2026-05-05 15:49 45.30527 10.03252 5616 ft 250 kts 80°
2026-05-05 15:49 45.31075 10.05555 5617 ft 245 kts 65°
2026-05-05 15:49 45.31812 10.07752 5609 ft 248 kts 64°
2026-05-05 15:50 45.32566 10.09974 5615 ft 250 kts 64°
2026-05-05 15:50 45.33325 10.12199 5604 ft 250 kts 60°
2026-05-05 15:50 45.34383 10.14091 5614 ft 247 kts 45°
2026-05-05 15:50 45.35604 10.15799 5604 ft 243 kts 44°
2026-05-05 15:51 45.36790 10.17442 5570 ft 231 kts 44°
2026-05-05 15:51 45.37901 10.19000 5579 ft 219 kts 43°
2026-05-05 15:51 45.39133 10.20204 5607 ft 214 kts 22°
2026-05-05 15:51 45.40512 10.21053 5609 ft 218 kts 24°
2026-05-05 15:52 45.41895 10.21962 5612 ft 220 kts 24°
2026-05-05 15:52 45.43286 10.22891 5613 ft 222 kts 25°
2026-05-05 15:52 45.44685 10.23822 5601 ft 220 kts 21°
2026-05-05 15:52 45.46155 10.24087 5599 ft 212 kts 346°
2026-05-05 15:53 45.47404 10.23146 5618 ft 206 kts 313°
2026-05-05 15:53 45.48141 10.21421 5614 ft 207 kts 285°
2026-05-05 15:53 45.48386 10.19416 5607 ft 204 kts 276°
2026-05-05 15:53 45.48520 10.17406 5626 ft 204 kts 275°
2026-05-05 15:54 45.48644 10.15392 5611 ft 204 kts 275°
2026-05-05 15:54 45.48769 10.13368 5448 ft 205 kts 275°
2026-05-05 15:54 45.48896 10.11348 5274 ft 204 kts 275°
2026-05-05 15:54 45.49027 10.09345 5089 ft 203 kts 275°
2026-05-05 15:55 45.49159 10.07339 4860 ft 204 kts 275°
2026-05-05 15:55 45.49292 10.05345 4605 ft 201 kts 275°
2026-05-05 15:55 45.49424 10.03360 4340 ft 200 kts 275°
2026-05-05 15:55 45.49555 10.01384 4100 ft 201 kts 275°
2026-05-05 15:56 45.49685 9.99417 4007 ft 197 kts 275°
2026-05-05 15:56 45.49816 9.97455 4009 ft 199 kts 275°
2026-05-05 15:56 45.50174 9.95583 3991 ft 193 kts 299°
2026-05-05 15:56 45.50873 9.93957 3991 ft 191 kts 301°
2026-05-05 15:57 45.51556 9.92353 4006 ft 189 kts 301°
2026-05-05 15:57 45.52229 9.90762 4016 ft 190 kts 301°
2026-05-05 15:57 45.52914 9.89140 4004 ft 191 kts 300°
2026-05-05 15:57 45.53598 9.87512 4005 ft 192 kts 300°
2026-05-05 15:58 45.54281 9.85886 3987 ft 189 kts 301°
2026-05-05 15:58 45.54949 9.84295 3764 ft 184 kts 301°
2026-05-05 15:58 45.55597 9.82751 3570 ft 180 kts 300°
2026-05-05 15:58 45.56231 9.81238 3440 ft 179 kts 300°
2026-05-05 15:59 45.56870 9.79712 3330 ft 177 kts 300°
2026-05-05 15:59 45.57486 9.78240 3313 ft 172 kts 300°
2026-05-05 15:59 45.58103 9.76763 3304 ft 173 kts 301°
2026-05-05 15:59 45.58719 9.75288 3302 ft 173 kts 300°
2026-05-05 16:00 45.59336 9.73806 3300 ft 174 kts 300°
2026-05-05 16:00 45.59953 9.72328 3300 ft 172 kts 300°
2026-05-05 16:00 45.60560 9.70875 3234 ft 174 kts 300°
2026-05-05 16:00 45.61173 9.69407 3077 ft 170 kts 300°
2026-05-05 16:01 45.61788 9.67926 2967 ft 174 kts 300°
2026-05-05 16:01 45.62405 9.66442 2912 ft 172 kts 300°
2026-05-05 16:01 45.63016 9.64976 2906 ft 172 kts 300°
2026-05-05 16:01 45.63628 9.63504 2903 ft 172 kts 300°
2026-05-05 16:02 45.64239 9.62033 2903 ft 172 kts 300°
2026-05-05 16:02 45.64851 9.60560 2898 ft 173 kts 300°
2026-05-05 16:02 45.65464 9.59085 2900 ft 172 kts 300°
2026-05-05 16:02 45.66075 9.57620 2909 ft 171 kts 300°
2026-05-05 16:03 45.66317 9.55999 2906 ft 168 kts 259°
2026-05-05 16:03 45.65709 9.54597 2898 ft 171 kts 216°
2026-05-05 16:03 45.64580 9.54155 2916 ft 172 kts 180°
2026-05-05 16:03 45.63390 9.54384 2896 ft 176 kts 156°
2026-05-05 16:04 45.62538 9.55594 2904 ft 177 kts 114°
2026-05-05 16:04 45.62407 9.57317 2924 ft 176 kts 86°
2026-05-05 16:04 45.62431 9.59065 2907 ft 179 kts 90°
2026-05-05 16:04 45.62347 9.60834 2892 ft 179 kts 104°
2026-05-05 16:05 45.62012 9.62533 2901 ft 177 kts 105°
2026-05-05 16:05 45.61701 9.64241 2899 ft 177 kts 104°
2026-05-05 16:05 45.61394 9.65943 2902 ft 177 kts 104°
2026-05-05 16:05 45.61089 9.67642 2898 ft 177 kts 104°
2026-05-05 16:06 45.60782 9.69339 2902 ft 176 kts 104°
2026-05-05 16:06 45.60478 9.71030 2903 ft 175 kts 104°
2026-05-05 16:06 45.60174 9.72716 2906 ft 175 kts 104°
2026-05-05 16:06 45.59873 9.74379 2905 ft 175 kts 104°
2026-05-05 16:07 45.59563 9.76083 2912 ft 176 kts 104°
2026-05-05 16:07 45.59256 9.77758 2904 ft 177 kts 104°
2026-05-05 16:07 45.58945 9.79455 2908 ft 177 kts 104°
2026-05-05 16:07 45.58633 9.81162 2901 ft 177 kts 104°
2026-05-05 16:08 45.58327 9.82857 2893 ft 176 kts 104°